CZ-6A DEB

Satellite information

Favourite Embed

Satellite Type and Status

DEBRISIN ORBIT

Key statistics

Satellite CZ-6A DEB at a glance.

Uptime

276

Days in orbit

Revolutions

≈ 14.3

Per day

Orbit

LEO

Low Earth Orbit

Inclination

89.0

Latest

Satellite identification and parameters

Extended collection of information and parameters for CZ-6A DEB.

Object identification

Identified? True

Debris? True

Object name: CZ-6A DEB

International designator: 2024-140TL

Object number (NORAD): 61299

Object ID (CCSDS): 61299

Country: PEOPLES REPUBLIC OF CHINA (PRC)

Current information (Y/N): Y

RCS size: SMALL

Orbital parameters

Period: 100.952 minutes

Inclination: 88.9953 deg

SMA: 7181.876 km

Apoapsis: 824.428 km

Periapsis: 783.054 km

RAAN: 319.8223 deg

Eccentricy: 0.0028804

Argument of periapsis: 77.6626 deg

Mean anomaly: 282.779 deg

Mean motion: 14.26414993 rev/day

Mean motion (dot): 0.00003151 rev/day2

B* drag term: 0.0012989 1/REarth

Two-line elements (TLE)

Creation date: May 8, 2025, 2:36 p.m.

Reference frame: TEME

Reference center: EARTH

Epoch: May 8, 2025, 11:53 a.m. UTC

TLE line 0: 0 CZ-6A DEB

TLE line 1: 1 61299U 24140TL 25128.49533289 .00003151 00000-0 12989-2 0 9990

TLE line 2: 2 61299 88.9953 319.8223 0028804 77.6626 282.7790 14.26414993 36080

Live tracking on map

Real-time ground track for satellite CZ-6A DEB.

In-orbit conjunctions

A list of the most updated potential collisions computed for object CZ-6A DEB.

Target Orbit TCA Probability of collision Miss distance Type
DELTA 1 DEB SSO 2025-02-16 07:53:16 0.0001323566 90.0 (m) DEBRIS
NOAA 16 DEB SSO 2025-01-28 03:43:52 0.001951871 81.0 (m) DEBRIS
FENGYUN 1C DEB SSO 2024-12-25 00:05:05 0.0002763258 546.0 (m) DEBRIS
PSLV R/B SSO 2024-12-13 04:56:39 0.0003713989 719.0 (m) ROCKET BODY
CZ-6A DEB LEO 2024-11-14 04:36:16 0.0001595274 415.0 (m) DEBRIS

Associated space launch

18 Low Earth Orbit communication satellites with Ku, Q and V band payloads for the G60 constellation operated by Shanghai Spacecom Satellite Technology (SSST) with funding backed by the Shanghai local government. Initial constellation will consist of 1296 satellites by 2027 with long term plans to expand it to 12000 satellites.

CZ-6A DEB was lifted into orbit during the mission ‘Long March 6A | G60 Polar Group 01’, on board a Long March 6A space rocket.

The launch took place on Aug. 6, 2024, 6:42 a.m. from Launch Complex 9A.

For more information about the launch, click the button.

Launch to space Long March 6A | G60 Polar Group 01
Long March 6A | G60 Polar Group 01

Agency: N/A

Status: Launch Successful

Launch date: Aug. 6, 2024, 6:42 a.m. UTC

Rocket: Long March 6A

Launch pad: Launch Complex 9A

Location: Taiyuan Satellite Launch Center, People's Republic of China

...

Latest news about this satellite

News about space launch
Brightness of first Chinese broadband constellation satellites alarms astronomers

The first satellites of a Chinese broadband constellation are significantly brighter than those of Western systems, posing a new challenge for astronomers.

News about space launch
Chinese rocket stage breaks up into cloud of more than 700 pieces of space debris

HELSINKI — A Chinese Long March 6A rocket’s upper stage has fragmented into a cloud of over 700 pieces of space debris, adding to concerns about long-term orbital safety. China […]

News about space launch
China's Thousand Sails Megaconstellation Kicks Off with Dangerous Debris Field

China's Thousand Sails Megaconstellation Kicks Off with Dangerous Debris Field


Newsletter sign-up

Weekly statistics, charts and insights to help you stay on top of the space industry.